www.pogodaiklimat.ru

Погода и климат >> Архив погоды >> Россия >> Чукотка >> Майская


ПОГОДА в Майской

  • Прогноз погоды в Майской
  • Монитор погоды в Майской

АРХИВ ПОГОДЫ в Майской

Время (UTC), дата Ветер
(напр.,м/с)
 
Видим.   Явления Облачность Т
(С)
Тd
(С)
f
(%)
Тe
(С)
Тes
(С)
Комфортность P
(гПа)
Po
(гПа)
Тmin
(С)
Tmax
(С)
R
(мм)
R24
(мм)
S
(см)
09 11.06 ЮВ 6 н/о н/о +17.1 +6.8 51 +16 +16 1014.3 973.5
12 11.06 ЮВ 7 н/о н/о +14.2 +5.7 57 +12 +12 1014.4 973.2
15 11.06 ЮВ 6 н/о н/о +14.5 +3.5 48 +13 +13 1014.3 973.1
18 11.06 ЮВ 3 н/о н/о +16.8 +4.5 44 +17 +17 1013.8 972.9
21 11.06 ЮЗ 3 н/о н/о +20.8 +1.5 28 +21 +21 комфорт 1013.2 972.9
00 12.06 З 2 н/о н/о +22.0 -1.9 20 +21 +21 комфорт 1012.1 972.0
03 12.06 ЮЗ 5
{11}
н/о н/о +22.8 -2.6 18 +21 +21 комфорт 1010.7 970.7
06 12.06 З 6
{10}
н/о н/о +22.8 -2.0 19 +22 +22 комфорт 1009.9 970.0
09 12.06 ЮЗ 2 н/о н/о +20.6 +0.2 26 +21 +21 комфорт 1010.3 970.1
12 12.06 Ю 6 н/о н/о +17.1 -1.8 27 +16 +16 1010.7 970.0
15 12.06 ЮВ 5 н/о н/о +16.3 -1.6 29 +16 +16 1010.8 969.9
18 12.06 ЮВ 3 н/о н/о +18.1 +0.3 30 +18 +18 1010.8 970.2
03 13.06 З 5-10
{10}
н/о н/о +23.5 -3.3 17 +22 +22 комфорт 1009.0 969.2
06 13.06 З 4
{10}
н/о н/о +24.0 -3.4 16 +22 +22 комфорт 1008.2 968.4
09 13.06 З 1 н/о н/о +22.4 -1.6 20 +21 +21 комфорт 1008.4 968.5
12 13.06 ЮЗ 1 н/о н/о +16.1 +4.3 45 +17 +17 1009.9 969.1
15 13.06 ЮВ 5 н/о н/о +16.3 +2.2 39 +15 +15 1009.9 969.1
18 13.06 ЮВ 4 н/о н/о +18.8 +1.7 32 +19 +19 1009.8 969.4
21 13.06 ЮЗ 6 н/о н/о +22.2 +0.5 24 +22 +22 комфорт 1009.7 969.7
00 14.06 ЮЗ 5 н/о н/о +24.2 -1.0 19 +23 +23 комфорт 1009.5 969.8
03 14.06 ЮЗ 5 н/о н/о +24.6 -0.2 19 +23 +23 комфорт 1009.7 970.0
06 14.06 З 3 н/о н/о +23.8 -2.7 17 +22 +22 комфорт 1010.0 970.2
09 14.06 СВ 5 н/о н/о +19.4 +0.1 27 +19 +19 1011.7 971.2
12 14.06 ЮВ 5 н/о н/о +17.7 -0.4 29 +17 +17 1013.1 972.3
15 14.06 СВ 1 н/о н/о +16.4 -1.8 29 +17 +17 1014.4 973.4
18 14.06 Ю 3 н/о н/о +20.5 +1.0 27 +21 +21 комфорт 1014.6 974.2
00 15.06 З 3 н/о н/о +24.8 -2.0 17 +23 +23 комфорт 1014.9 975.0
03 15.06 СЗ 3 н/о н/о +25.9 -2.7 15 +24 +24 комфорт 1014.5 974.8
06 15.06 З 2 н/о н/о +26.1 -3.3 14 +24 +24 комфорт 1014.2 974.5
09 15.06 З 1 н/о н/о +24.3 +1.9 23 +23 +23 комфорт 1014.6 974.7
12 15.06 ЮВ 3 н/о н/о +20.5 +0.4 26 +21 +21 комфорт 1015.6 975.1
15 15.06 ЮЗ 1 н/о н/о +20.2 -0.5 25 +21 +21 комфорт 1015.7 975.2
18 15.06 В 1 н/о н/о +20.7 +3.1 31 +22 +22 комфорт 1015.7 975.3
21 15.06 Ю 2 н/о н/о +24.7 -3.2 16 +23 +23 комфорт 1014.7 974.8
00 16.06 З 3 н/о н/о +26.2 -3.3 14 +24 +24 комфорт 1013.6 974.0
03 16.06 ЮЗ 3 н/о н/о +26.7 -2.7 14 +24 +24 комфорт 1012.5 973.0
09 16.06 ЮВ 3 н/о н/о +22.9 +3.4 28 +23 +23 комфорт 1012.7 972.7
12 16.06 ЮВ 5 н/о н/о +19.7 +2.7 32 +20 +20 1013.1 972.7
15 16.06 З 1 н/о н/о +18.4 +1.8 33 +20 +20 1013.3 972.7
18 16.06 штиль 0 н/о н/о +19.1 +5.8 42 +19 +19 1013.8 973.3
21 16.06 З 1 н/о н/о +22.6 +4.0 30 +23 +23 комфорт 1013.3 973.3
00 17.06 СЗ 3 н/о н/о +25.7 +4.0 25 +25 +25 комфорт 1012.4 972.8
03 17.06 СВ 3 н/о н/о +25.5 +0.1 19 +24 +24 комфорт 1011.7 972.1
06 17.06 СВ 8-10
{11}
н/о н/о +24.3 -1.2 18 +23 +23 комфорт 1012.0 972.2
09 17.06 СВ 4
{10}
н/о н/о +20.9 0.0 25 +21 +21 комфорт 1012.8 972.5
12 17.06 ЮЗ 1 н/о н/о +14.8 +4.1 49 +15 +15 1014.0 972.9

 

Местоположение метеостанции Майская (Чукотка, Россия): широта 68.57 долгота 173.48 высота над уровнем моря 351 м.

В архиве по умолчанию представлена погода в Майской за последнюю неделю. Архивные данные за месяц целиком и за предыдущие месяцы, начиная с января 2011 года, Вы можете получить, выбрав интересующий диапазон дат из раскрывающегося списка и нажав кнопку "Ввод!".


*Определитесь, кто Вы:
робот инопланетянин человек

Внимание! Время в таблицах - всемирное. Для получения местного времени необходимо прибавить поправку, которая равна 12 ч.

Смотрите также архив погоды в соседних городах и на ближайших метеорологических станциях:

Погода в Паляваам-Глубокой (Чукотка, Россия) (66 км)
Погода в Комсомольской (Чукотка, Россия) (68 км)
Погода в Чауне (Чукотка, Россия) (117 км)
Погода на 21 км (Чукотка, Россия) (158 км)
Погода на Мысе Биллингс (Чукотка, Россия) (170 км)
Погода в Певеке (Чукотка, Россия) (181 км)
Погода в Валькаркае (Чукотка, Россия) (196 км)
Погода в Эньмувееме (Чукотка, Россия) (244 км)
Погода на Айон Острове (Чукотка, Россия) (267 км)
Погода в Илирнее (Чукотка, Россия) (276 км)

Пояснения к столбцам:

Ветер - указаны скорость ветра в м/с - средняя за 10 мин, порывы в срок и между сроками (в фигурных скобках) и направление, откуда дует ветер: С - северный, СВ - северо-восточный, В - восточный, ЮВ - юго-восточный, Ю - южный, ЮЗ - юго-западный, З - западный, СЗ - северо-западный.
Видимость - горизонтальная дальность видимости в метрах или километрах. При видимости от 1 до 10 км при отсутствии осадков обычно наблюдается дымка, при ухудшении видимости до 1 км и менее - туман. В сухую погоду видимость может ухудшаться дымом, пылью или мглою.
Явления - указаны атмосферные явления, наблюдавшиеся в срок или в последний час перед сроком; фигурными скобками обозначены явления, наблюдавшиеся между сроками (за 1-3 часа до срока); квадратными скобками обозначены град или гололедные отложения с указанием их диаметра в мм.
Облачность - указаны через наклонную черту общая и нижняя облачность в баллах и высота нижней границы облаков в метрах; квадратными скобками обозначены формы облаков: Ci - перистые, Cs - перисто-слоистые, Cc - перисто-кучевые, Ac - высококучевые, As - высокослоистые, Sc - слоисто-кучевые, Ns - слоисто-дождевые, Cu - кучевые, Cb - кучево-дождевые. Подробнее классификацию облаков см. в Атласе облаков (PDF).
T - Температура воздуха - температура, измеренная на высоте 2 м над землей.
Td - Температура точки росы - температура, при понижении до которой содержащийся в воздухе водяной пар достигнет насыщения.
f - Относительная влажность воздуха - влажноcть воздуха, измеренная на высоте 2 м над землей.
Te - Эффективная температура - температура, которую ощущает одетый по сезону человек в тени. Характеристика душности погоды. При расчете учитывается влияние влажности воздуха и скорости ветра на теплоощущения человека.
Tes - Эффективная температура на солнце - температура, которую ощущает человек, с поправкой на солнечный нагрев. Характеристика знойности погоды. Зависит от высоты солнца над горизонтом, облачности и скорости ветра. Ночью, в пасмурную погоду, а также при ветре 12 м/с и более поправка равна нулю.
P - Атмосферное давление - приведенное к уровню моря атмосферное давление.
Po - Атмосферное давление - измеренное на уровне метеостанции атмосферное давление.
Tmin - Минимальная температура - минимум температуры воздуха на высоте 2 м над землей.
Tmax - Максимальная температура - максимум температуры воздуха на высоте 2 м над землей.
R - Количество осадков - Количество выпавших осадков за период времени, мм. При наведении курсора мыши на число - период времени, за который выпало указанное количество осадков.
R24 - Количество осадков - Количество выпавших осадков за 24 часа, мм.
S - Снежный покров - Высота снежного покрова, см. При наведении курсора мыши на число - состояние снежного покрова и степень покрытия местности в баллах.